Zurück zum Katalog

STARLINK-3877

AktivKommunikationVLEO
NORAD 52355·PAYLOAD·🇺🇸 United States

Gestartet Apr 29, 2022 von Cape Canaveral Space Force Station

Loading…

Nächste Überflüge (nächste 24 Stunden)

TLE

AktuellSource: CelesTrak SupGP

Epoche: Sep 14, 2026, 22:08 UTC

1 52355C 22045AA  26257.92270833  .00049607  00000+0  14657-2 0  2576
2 52355  53.1596  61.9194 0001148  82.2482 234.9611 15.34364364    17

Verfolge STARLINK-3877 in Echtzeit mit AllMySat

Download on the App Store